| time (UTC) | temp F | wind direction | speed MPH | gust MPH | rain 1hr in | rain 24hr in | rain mn in | humidity % | barometer mb |
| 20260507185448 | 53 | 340 | 11.0 | 20.0 | 0.00 | 0.00 | 0.00 | 32 | 1010.5 |
| 20260507184950 | 53 | 251 | 11.0 | 20.0 | 0.00 | 0.00 | 0.00 | 33 | 1010.6 |
| 20260507184451 | 53 | 200 | 9.0 | 19.0 | 0.00 | 0.00 | 0.00 | 32 | 1010.6 |
| 20260507183948 | 52 | 284 | 6.0 | 16.0 | 0.00 | 0.00 | 0.00 | 33 | 1010.6 |
| 20260507183447 | 52 | 355 | 5.0 | 12.0 | 0.00 | 0.00 | 0.00 | 32 | 1010.7 |
| 20260507182947 | 52 | 250 | 5.0 | 10.0 | 0.00 | 0.00 | 0.00 | 32 | 1010.7 |
| 20260507182454 | 53 | 263 | 7.0 | 16.0 | 0.00 | 0.00 | 0.00 | 32 | 1010.9 |
| 20260507181958 | 53 | 311 | 6.0 | 16.0 | 0.00 | 0.00 | 0.00 | 32 | 1011.0 |
| 20260507181447 | 53 | 203 | 4.0 | 13.0 | 0.00 | 0.00 | 0.00 | 35 | 1010.9 |
| 20260507180947 | 51 | 315 | 6.0 | 19.0 | 0.00 | 0.00 | 0.00 | 33 | 1011.0 |
| 20260507180448 | 51 | 311 | 10.0 | 19.0 | 0.00 | 0.00 | 0.00 | 33 | 1011.1 |
| 20260507175948 | 51 | 282 | 10.0 | 19.0 | 0.00 | 0.00 | 0.00 | 33 | 1011.2 |
| 20260507175445 | 52 | 304 | 7.0 | 19.0 | 0.00 | 0.00 | 0.00 | 34 | 1011.2 |
| 20260507174947 | 51 | 296 | 6.0 | 15.0 | 0.00 | 0.00 | 0.00 | 35 | 1011.3 |
| 20260507172945 | 52 | 245 | 6.0 | 16.0 | 0.00 | 0.00 | 0.00 | 33 | 1011.5 |
| 20260507172445 | 52 | 233 | 6.0 | 13.0 | 0.00 | 0.00 | 0.00 | 34 | 1011.5 |
| 20260507171945 | 52 | 247 | 5.0 | 13.0 | 0.00 | 0.00 | 0.00 | 34 | 1011.6 |
| 20260507171446 | 52 | 278 | 5.0 | 14.0 | 0.00 | 0.00 | 0.00 | 35 | 1011.7 |
| 20260507170942 | 52 | 239 | 6.0 | 14.0 | 0.00 | 0.00 | 0.00 | 34 | 1011.7 |
| 20260507170442 | 52 | 284 | 6.0 | 14.0 | 0.00 | 0.00 | 0.00 | 35 | 1011.6 |
| 20260507165942 | 51 | 202 | 8.0 | 15.0 | 0.00 | 0.00 | 0.00 | 35 | 1011.8 |
| 20260507164941 | 52 | 281 | 7.0 | 14.0 | 0.00 | 0.00 | 0.00 | 34 | 1011.8 |
| 20260507164443 | 52 | 244 | 6.0 | 14.0 | 0.00 | 0.00 | 0.00 | 35 | 1011.8 |
| 20260507163941 | 51 | 215 | 3.0 | 10.0 | 0.00 | 0.00 | 0.00 | 35 | 1011.9 |
| 20260507163440 | 51 | 342 | 4.0 | 11.0 | 0.00 | 0.00 | 0.00 | 34 | 1011.9 |
| 20260507162943 | 51 | 257 | 3.0 | 11.0 | 0.00 | 0.00 | 0.00 | 34 | 1012.0 |
| 20260507162437 | 51 | 266 | 2.0 | 11.0 | 0.00 | 0.00 | 0.00 | 34 | 1012.0 |
| 20260507161438 | 51 | 206 | 5.0 | 12.0 | 0.00 | 0.00 | 0.00 | 34 | 1012.2 |
| 20260507160937 | 50 | 221 | 4.0 | 12.0 | 0.00 | 0.00 | 0.00 | 36 | 1012.2 |
| 20260507160437 | 49 | 275 | 5.0 | 14.0 | 0.00 | 0.00 | 0.00 | 37 | 1012.2 |
| 20260507155437 | 50 | 200 | 4.0 | 11.0 | 0.00 | 0.00 | 0.00 | 36 | 1012.3 |
| 20260507154439 | 48 | 262 | 6.0 | 12.0 | 0.00 | 0.00 | 0.00 | 38 | 1012.5 |
| 20260507153932 | 49 | 316 | 5.0 | 12.0 | 0.00 | 0.00 | 0.00 | 39 | 1012.4 |
| 20260507153432 | 49 | 227 | 4.0 | 11.0 | 0.00 | 0.00 | 0.00 | 40 | 1012.3 |
| 20260507152932 | 48 | 267 | 4.0 | 11.0 | 0.00 | 0.00 | 0.00 | 41 | 1012.3 |
| 20260507152432 | 48 | 327 | 3.0 | 9.0 | 0.00 | 0.00 | 0.00 | 41 | 1012.3 |
| 20260507151433 | 48 | 239 | 5.0 | 12.0 | 0.00 | 0.00 | 0.00 | 43 | 1012.4 |
| 20260507150933 | 48 | 256 | 4.0 | 12.0 | 0.00 | 0.00 | 0.00 | 43 | 1012.4 |
| 20260507150434 | 47 | 261 | 3.0 | 10.0 | 0.00 | 0.00 | 0.00 | 44 | 1012.3 |
| 20260507145931 | 46 | 282 | 3.0 | 11.0 | 0.00 | 0.00 | 0.00 | 45 | 1012.4 |
| 20260507145442 | 46 | 290 | 4.0 | 11.0 | 0.00 | 0.00 | 0.00 | 45 | 1012.4 |
| 20260507144935 | 45 | 292 | 4.0 | 10.0 | 0.00 | 0.00 | 0.00 | 45 | 1012.5 |
| 20260507144431 | 45 | 272 | 5.0 | 13.0 | 0.00 | 0.00 | 0.00 | 46 | 1012.5 |
| 20260507143931 | 45 | 277 | 6.0 | 13.0 | 0.00 | 0.00 | 0.00 | 45 | 1012.6 |
| 20260507143435 | 46 | 229 | 5.0 | 10.0 | 0.00 | 0.00 | 0.00 | 45 | 1012.6 |
| 20260507142925 | 45 | 213 | 5.0 | 11.0 | 0.00 | 0.00 | 0.00 | 46 | 1012.8 |
| 20260507142419 | 45 | 271 | 4.0 | 11.0 | 0.00 | 0.00 | 0.00 | 45 | 1012.8 |
| 20260507141912 | 45 | 284 | 4.0 | 9.0 | 0.00 | 0.00 | 0.00 | 45 | 1012.8 |
| 20260507141408 | 45 | 166 | 5.0 | 10.0 | 0.00 | 0.00 | 0.00 | 45 | 1012.6 |
| 20260507140908 | 45 | 191 | 5.0 | 10.0 | 0.00 | 0.00 | 0.00 | 46 | 1012.8 |
| 20260507140413 | 45 | 210 | 3.0 | 8.0 | 0.00 | 0.00 | 0.00 | 49 | 1012.8 |
| 20260507135910 | 44 | 217 | 3.0 | 8.0 | 0.00 | 0.00 | 0.00 | 49 | 1012.8 |
| 20260507135409 | 44 | 185 | 3.0 | 8.0 | 0.00 | 0.00 | 0.00 | 52 | 1012.9 |
| 20260507134906 | 43 | 215 | 3.0 | 8.0 | 0.00 | 0.00 | 0.00 | 52 | 1012.8 |
| 20260507134407 | 43 | 216 | 3.0 | 8.0 | 0.00 | 0.00 | 0.00 | 52 | 1012.8 |
| 20260507133406 | 42 | 269 | 5.0 | 10.0 | 0.00 | 0.00 | 0.00 | 56 | 1012.8 |
| 20260507132904 | 42 | 293 | 4.0 | 9.0 | 0.00 | 0.00 | 0.00 | 58 | 1012.8 |
| 20260507132405 | 42 | 277 | 4.0 | 8.0 | 0.00 | 0.00 | 0.00 | 57 | 1012.9 |
| 20260507131906 | 41 | 258 | 4.0 | 8.0 | 0.00 | 0.00 | 0.00 | 58 | 1013.0 |
| 20260507131405 | 41 | 294 | 3.0 | 9.0 | 0.00 | 0.00 | 0.00 | 59 | 1013.1 |
| 20260507130907 | 41 | 251 | 4.0 | 9.0 | 0.00 | 0.00 | 0.00 | 59 | 1013.1 |
| 20260507130406 | 41 | 258 | 3.0 | 8.0 | 0.00 | 0.00 | 0.00 | 60 | 1013.1 |
| 20260507125903 | 40 | 298 | 2.0 | 8.0 | 0.00 | 0.00 | 0.00 | 61 | 1013.1 |
| 20260507125405 | 40 | 266 | 2.0 | 6.0 | 0.00 | 0.00 | 0.00 | 62 | 1013.1 |
| 20260507124900 | 40 | 286 | 4.0 | 8.0 | 0.00 | 0.00 | 0.00 | 62 | 1013.0 |
| 20260507124354 | 40 | 258 | 3.0 | 8.0 | 0.00 | 0.00 | 0.00 | 62 | 1013.0 |
| 20260507123854 | 40 | 259 | 1.0 | 4.0 | 0.00 | 0.00 | 0.00 | 63 | 1012.9 |
| 20260507123353 | 39 | 254 | 1.0 | 3.0 | 0.00 | 0.00 | 0.00 | 63 | 1013.0 |
| 20260507122350 | 39 | 261 | 1.0 | 3.0 | 0.00 | 0.00 | 0.00 | 64 | 1013.0 |
| 20260507121849 | 38 | 259 | 0.0 | 2.0 | 0.00 | 0.00 | 0.00 | 65 | 1012.9 |
| 20260507121349 | 38 | 226 | 0.0 | 2.0 | 0.00 | 0.00 | 0.00 | 66 | 1012.8 |
| 20260507115844 | 36 | 203 | 2.0 | 7.0 | 0.00 | 0.00 | 0.00 | 68 | 1012.5 |
| 20260507115340 | 36 | 215 | 2.0 | 5.0 | 0.00 | 0.00 | 0.00 | 69 | 1012.5 |
| 20260507114840 | 36 | 227 | 2.0 | 5.0 | 0.00 | 0.00 | 0.00 | 69 | 1012.5 |
| 20260507114338 | 36 | 234 | 2.0 | 5.0 | 0.00 | 0.00 | 0.00 | 69 | 1012.5 |
| 20260507113838 | 36 | 229 | 1.0 | 5.0 | 0.00 | 0.00 | 0.00 | 69 | 1012.5 |
| 20260507113337 | 36 | 222 | 1.0 | 5.0 | 0.00 | 0.00 | 0.00 | 70 | 1012.6 |
| 20260507112836 | 35 | 246 | 0.0 | 2.0 | 0.00 | 0.00 | 0.00 | 71 | 1012.6 |
| 20260507112334 | 35 | 246 | 1.0 | 6.0 | 0.00 | 0.00 | 0.00 | 71 | 1012.8 |
| 20260507111830 | 35 | 258 | 1.0 | 6.0 | 0.00 | 0.00 | 0.00 | 71 | 1012.8 |
| 20260507110831 | 35 | 250 | 1.0 | 2.0 | 0.00 | 0.00 | 0.00 | 72 | 1012.8 |
| 20260507105823 | 35 | 248 | 1.0 | 4.0 | 0.00 | 0.00 | 0.00 | 73 | 1012.8 |
| 20260507104818 | 34 | 227 | 0.0 | 2.0 | 0.00 | 0.00 | 0.00 | 74 | 1012.8 |
| 20260507103817 | 34 | 232 | 0.0 | 2.0 | 0.00 | 0.00 | 0.00 | 75 | 1012.6 |
| 20260507102818 | 34 | 234 | 1.0 | 3.0 | 0.00 | 0.00 | 0.00 | 75 | 1012.8 |
| 20260507102315 | 34 | 248 | 1.0 | 3.0 | 0.00 | 0.00 | 0.00 | 75 | 1012.9 |
| 20260507101813 | 34 | 253 | 2.0 | 6.0 | 0.00 | 0.00 | 0.00 | 75 | 1012.9 |
| 20260507101310 | 33 | 267 | 2.0 | 6.0 | 0.00 | 0.00 | 0.00 | 75 | 1012.9 |
| 20260507100307 | 33 | 248 | 0.0 | 3.0 | 0.00 | 0.00 | 0.00 | 75 | 1013.0 |
| 20260507095807 | 33 | 242 | 1.0 | 3.0 | 0.00 | 0.00 | 0.00 | 75 | 1013.0 |
| 20260507095308 | 33 | 240 | 1.0 | 4.0 | 0.00 | 0.00 | 0.00 | 76 | 1013.0 |
| 20260507094804 | 33 | 242 | 1.0 | 4.0 | 0.00 | 0.00 | 0.00 | 76 | 1012.9 |
| 20260507094306 | 33 | 261 | 1.0 | 4.0 | 0.00 | 0.00 | 0.00 | 77 | 1013.0 |
| 20260507093805 | 33 | 253 | 1.0 | 4.0 | 0.00 | 0.00 | 0.00 | 77 | 1013.1 |
| 20260507093302 | 33 | 254 | 0.0 | 4.0 | 0.00 | 0.00 | 0.00 | 78 | 1013.1 |
| 20260507092803 | 33 | 242 | 0.0 | 1.0 | 0.00 | 0.00 | 0.00 | 79 | 1013.0 |
| 20260507092301 | 33 | 242 | 0.0 | 0.0 | 0.00 | 0.00 | 0.00 | 78 | 1013.0 |
| 20260507091803 | 33 | 242 | 0.0 | 1.0 | 0.00 | 0.00 | 0.00 | 79 | 1013.0 |
| 20260507091259 | 33 | 242 | 0.0 | 2.0 | 0.00 | 0.00 | 0.00 | 78 | 1013.0 |
| 20260507090753 | 32 | 242 | 0.0 | 2.0 | 0.00 | 0.00 | 0.00 | 79 | 1013.0 |
| 20260507090247 | 32 | 240 | 0.0 | 2.0 | 0.00 | 0.00 | 0.00 | 79 | 1013.1 |
| 20260507085742 | 32 | 239 | 0.0 | 2.0 | 0.00 | 0.00 | 0.00 | 79 | 1013.0 |
| 20260507085235 | 32 | 239 | 0.0 | 1.0 | 0.00 | 0.00 | 0.00 | 78 | 1013.0 |
| 20260507084730 | 32 | 239 | 0.0 | 0.0 | 0.00 | 0.00 | 0.00 | 78 | 1012.9 |
| 20260507084230 | 32 | 239 | 0.0 | 0.0 | 0.00 | 0.00 | 0.00 | 77 | 1012.9 |
| 20260507083730 | 32 | 239 | 0.0 | 0.0 | 0.00 | 0.00 | 0.00 | 77 | 1012.9 |
| 20260507082731 | 32 | 239 | 0.0 | 0.0 | 0.00 | 0.00 | 0.00 | 76 | 1013.0 |
| 20260507080730 | 33 | 239 | 0.0 | 0.0 | 0.00 | 0.00 | 0.00 | 74 | 1013.0 |
| 20260507075730 | 34 | 239 | 0.0 | 0.0 | 0.00 | 0.00 | 0.00 | 72 | 1013.1 |
| 20260507075230 | 34 | 239 | 0.0 | 0.0 | 0.00 | 0.00 | 0.00 | 72 | 1013.0 |
| 20260507074730 | 35 | 239 | 0.0 | 0.0 | 0.00 | 0.00 | 0.00 | 71 | 1013.0 |
| 20260507073731 | 35 | 239 | 0.0 | 0.0 | 0.00 | 0.00 | 0.00 | 70 | 1012.9 |
| 20260507073230 | 36 | 239 | 0.0 | 0.0 | 0.00 | 0.00 | 0.00 | 69 | 1013.0 |
| 20260507072736 | 36 | 239 | 0.0 | 0.0 | 0.00 | 0.00 | 0.00 | 68 | 1012.9 |
| 20260507072233 | 36 | 239 | 0.0 | 0.0 | 0.00 | 0.00 | 0.00 | 68 | 1013.1 |
| 20260507071230 | 37 | 239 | 0.0 | 1.0 | 0.00 | 0.00 | 0.00 | 67 | 1013.1 |
| 20260507070731 | 37 | 239 | 0.0 | 0.0 | 0.00 | 0.00 | 0.00 | 67 | 1013.1 |
| 20260507070228 | 38 | 239 | 0.0 | 0.0 | 0.00 | 0.00 | 0.00 | 67 | 1013.1 |
| 20260507065228 | 38 | 239 | 0.0 | 2.0 | 0.00 | 0.00 | 0.00 | 65 | 1013.1 |
| 20260507064729 | 39 | 239 | 0.0 | 2.0 | 0.00 | 0.00 | 0.00 | 64 | 1013.2 |
| 20260507064228 | 39 | 229 | 0.0 | 2.0 | 0.00 | 0.00 | 0.00 | 64 | 1013.2 |
| 20260507063729 | 39 | 223 | 0.0 | 2.0 | 0.00 | 0.00 | 0.00 | 63 | 1013.2 |
| 20260507063228 | 39 | 223 | 0.0 | 2.0 | 0.00 | 0.00 | 0.00 | 63 | 1013.3 |
| 20260507062229 | 39 | 286 | 0.0 | 3.0 | 0.00 | 0.00 | 0.00 | 62 | 1013.4 |
| 20260507061728 | 39 | 287 | 0.0 | 3.0 | 0.00 | 0.00 | 0.00 | 63 | 1013.5 |
| 20260507061228 | 39 | 222 | 0.0 | 2.0 | 0.00 | 0.00 | 0.00 | 62 | 1013.6 |
| 20260507060730 | 39 | 221 | 0.0 | 2.0 | 0.00 | 0.00 | 0.00 | 63 | 1013.6 |
| 20260507060224 | 39 | 236 | 0.0 | 3.0 | 0.00 | 0.00 | 0.00 | 62 | 1013.7 |
| 20260507055724 | 39 | 242 | 1.0 | 3.0 | 0.00 | 0.00 | 0.00 | 63 | 1013.7 |
| 20260507055224 | 39 | 248 | 1.0 | 3.0 | 0.00 | 0.00 | 0.00 | 62 | 1013.6 |
| 20260507054725 | 39 | 248 | 1.0 | 4.0 | 0.00 | 0.00 | 0.00 | 62 | 1013.7 |
| 20260507054225 | 39 | 240 | 1.0 | 4.0 | 0.00 | 0.00 | 0.00 | 62 | 1013.7 |
| 20260507053723 | 39 | 248 | 1.0 | 3.0 | 0.00 | 0.00 | 0.00 | 62 | 1013.7 |
| 20260507052722 | 39 | 236 | 1.0 | 5.0 | 0.00 | 0.00 | 0.00 | 62 | 1013.7 |
| 20260507052222 | 40 | 234 | 2.0 | 5.0 | 0.00 | 0.00 | 0.00 | 62 | 1013.8 |
| 20260507051722 | 39 | 234 | 2.0 | 5.0 | 0.00 | 0.00 | 0.00 | 62 | 1013.8 |
| 20260507051223 | 39 | 234 | 1.0 | 4.0 | 0.00 | 0.00 | 0.00 | 62 | 1013.9 |
| 20260507045221 | 40 | 217 | 1.0 | 4.0 | 0.00 | 0.00 | 0.00 | 62 | 1014.0 |
| 20260507044718 | 40 | 236 | 1.0 | 4.0 | 0.00 | 0.00 | 0.00 | 61 | 1014.0 |
| 20260507044217 | 40 | 242 | 1.0 | 2.0 | 0.00 | 0.00 | 0.00 | 61 | 1014.0 |
| 20260507043713 | 40 | 244 | 0.0 | 2.0 | 0.00 | 0.00 | 0.00 | 61 | 1014.0 |
| 20260507043213 | 40 | 244 | 0.0 | 2.0 | 0.00 | 0.00 | 0.00 | 61 | 1014.0 |
| 20260507042711 | 40 | 244 | 0.0 | 2.0 | 0.00 | 0.00 | 0.00 | 61 | 1014.1 |
| 20260507042207 | 40 | 244 | 0.0 | 2.0 | 0.00 | 0.00 | 0.00 | 61 | 1014.1 |
| 20260507041707 | 40 | 245 | 0.0 | 2.0 | 0.00 | 0.00 | 0.00 | 60 | 1014.2 |
| 20260507041206 | 40 | 246 | 1.0 | 3.0 | 0.00 | 0.00 | 0.00 | 60 | 1014.2 |
| 20260507040706 | 40 | 245 | 1.0 | 3.0 | 0.00 | 0.00 | 0.00 | 60 | 1014.3 |
| 20260507040203 | 40 | 234 | 1.0 | 3.0 | 0.00 | 0.00 | 0.00 | 59 | 1014.2 |
| 20260507035705 | 40 | 236 | 0.0 | 3.0 | 0.00 | 0.00 | 0.00 | 59 | 1014.3 |
| 20260507035203 | 41 | 236 | 0.0 | 3.0 | 0.00 | 0.00 | 0.00 | 59 | 1014.3 |
| 20260507034205 | 41 | 236 | 1.0 | 3.0 | 0.00 | 0.00 | 0.00 | 57 | 1014.4 |
| 20260507033701 | 41 | 236 | 0.0 | 3.0 | 0.00 | 0.00 | 0.00 | 57 | 1014.3 |
| 20260507033202 | 41 | 235 | 0.0 | 3.0 | 0.00 | 0.00 | 0.00 | 57 | 1014.3 |
| 20260507032702 | 41 | 235 | 1.0 | 2.0 | 0.00 | 0.00 | 0.00 | 57 | 1014.3 |
| 20260507032202 | 41 | 235 | 1.0 | 3.0 | 0.00 | 0.00 | 0.00 | 57 | 1014.4 |
| 20260507031701 | 41 | 235 | 1.0 | 3.0 | 0.00 | 0.00 | 0.00 | 56 | 1014.5 |
| 20260507030702 | 42 | 240 | 1.0 | 3.0 | 0.00 | 0.00 | 0.00 | 56 | 1014.4 |
| 20260507030202 | 42 | 255 | 0.0 | 3.0 | 0.00 | 0.00 | 0.00 | 56 | 1014.4 |
| 20260507025703 | 42 | 277 | 0.0 | 2.0 | 0.00 | 0.00 | 0.00 | 56 | 1014.4 |
| 20260507025201 | 42 | 291 | 0.0 | 2.0 | 0.00 | 0.00 | 0.00 | 56 | 1014.4 |
| 20260507024706 | 41 | 292 | 1.0 | 6.0 | 0.00 | 0.00 | 0.00 | 56 | 1014.4 |
| 20260507024203 | 41 | 298 | 2.0 | 6.0 | 0.00 | 0.00 | 0.00 | 55 | 1014.4 |
| 20260507023702 | 41 | 293 | 2.0 | 7.0 | 0.00 | 0.00 | 0.00 | 55 | 1014.4 |
| 20260507023203 | 41 | 286 | 2.0 | 7.0 | 0.00 | 0.00 | 0.00 | 55 | 1014.4 |
| 20260507022702 | 42 | 265 | 2.0 | 6.0 | 0.00 | 0.00 | 0.00 | 55 | 1014.4 |
| 20260507022203 | 42 | 259 | 2.0 | 8.0 | 0.00 | 0.00 | 0.00 | 55 | 1014.4 |
| 20260507021701 | 42 | 265 | 2.0 | 8.0 | 0.00 | 0.00 | 0.00 | 55 | 1014.4 |
| 20260507020701 | 42 | 246 | 2.0 | 7.0 | 0.00 | 0.00 | 0.00 | 55 | 1014.3 |
| 20260507020202 | 42 | 263 | 2.0 | 7.0 | 0.00 | 0.00 | 0.00 | 54 | 1014.4 |
| 20260507015656 | 42 | 279 | 2.0 | 7.0 | 0.00 | 0.00 | 0.00 | 54 | 1014.4 |
| 20260507015150 | 42 | 280 | 2.0 | 7.0 | 0.00 | 0.00 | 0.00 | 54 | 1014.3 |
| 20260507014645 | 42 | 275 | 2.0 | 7.0 | 0.00 | 0.00 | 0.00 | 53 | 1014.3 |
| 20260507014138 | 42 | 262 | 2.0 | 7.0 | 0.00 | 0.00 | 0.00 | 53 | 1014.3 |
| 20260507013632 | 42 | 276 | 3.0 | 8.0 | 0.00 | 0.00 | 0.00 | 53 | 1014.4 |
| 20260507013128 | 42 | 301 | 3.0 | 8.0 | 0.00 | 0.00 | 0.00 | 53 | 1014.3 |
| 20260507012621 | 42 | 281 | 3.0 | 8.0 | 0.00 | 0.00 | 0.00 | 53 | 1014.3 |
| 20260507012114 | 42 | 281 | 3.0 | 7.0 | 0.00 | 0.00 | 0.00 | 53 | 1014.4 |
| 20260507011608 | 42 | 275 | 2.0 | 7.0 | 0.00 | 0.00 | 0.00 | 52 | 1014.4 |
| 20260507010106 | 42 | 293 | 5.0 | 9.0 | 0.00 | 0.00 | 0.00 | 51 | 1014.4 |
| 20260507005605 | 43 | 265 | 4.0 | 11.0 | 0.00 | 0.00 | 0.00 | 51 | 1014.6 |
| 20260507005104 | 43 | 292 | 4.0 | 11.0 | 0.00 | 0.00 | 0.00 | 51 | 1014.5 |
| 20260507004603 | 43 | 271 | 5.0 | 12.0 | 0.00 | 0.00 | 0.00 | 51 | 1014.6 |
| 20260507004101 | 43 | 298 | 6.0 | 12.0 | 0.00 | 0.00 | 0.00 | 51 | 1014.6 |
| 20260507003603 | 43 | 273 | 5.0 | 12.0 | 0.00 | 0.00 | 0.00 | 51 | 1014.6 |
| 20260507003103 | 43 | 288 | 5.0 | 12.0 | 0.00 | 0.00 | 0.00 | 50 | 1014.6 |
| 20260507002603 | 43 | 332 | 6.0 | 11.0 | 0.00 | 0.00 | 0.00 | 50 | 1014.6 |
| 20260507002101 | 43 | 293 | 6.0 | 12.0 | 0.00 | 0.00 | 0.00 | 50 | 1014.6 |
| 20260507001602 | 43 | 284 | 7.0 | 12.0 | 0.00 | 0.00 | 0.00 | 50 | 1014.6 |
| 20260507001103 | 43 | 272 | 6.0 | 11.0 | 0.00 | 0.00 | 0.00 | 49 | 1014.6 |
| 20260506235601 | 43 | 286 | 7.0 | 14.0 | 0.00 | 0.00 | 0.00 | 50 | 1014.6 |
| 20260506235101 | 43 | 243 | 7.0 | 14.0 | 0.00 | 0.00 | 0.00 | 49 | 1014.6 |
| 20260506234608 | 43 | 261 | 7.0 | 12.0 | 0.00 | 0.00 | 0.00 | 49 | 1014.6 |
| 20260506234101 | 43 | 234 | 7.0 | 13.0 | 0.00 | 0.00 | 0.00 | 49 | 1014.7 |
| 20260506233555 | 44 | 251 | 5.0 | 13.0 | 0.00 | 0.00 | 0.00 | 49 | 1014.7 |
| 20260506233050 | 44 | 243 | 4.0 | 11.0 | 0.00 | 0.00 | 0.00 | 50 | 1014.7 |
| 20260506232544 | 44 | 256 | 4.0 | 12.0 | 0.00 | 0.00 | 0.00 | 50 | 1014.7 |
| 20260506232035 | 44 | 229 | 4.0 | 12.0 | 0.00 | 0.00 | 0.00 | 50 | 1014.7 |
| 20260506231533 | 44 | 232 | 5.0 | 11.0 | 0.00 | 0.00 | 0.00 | 50 | 1014.7 |
| 20260506231034 | 44 | 257 | 5.0 | 12.0 | 0.00 | 0.00 | 0.00 | 50 | 1014.7 |
| 20260506230533 | 44 | 302 | 5.0 | 12.0 | 0.00 | 0.00 | 0.00 | 50 | 1014.7 |
| 20260506230033 | 43 | 227 | 6.0 | 13.0 | 0.00 | 0.00 | 0.00 | 50 | 1014.7 |
| 20260506225533 | 43 | 252 | 7.0 | 15.0 | 0.00 | 0.00 | 0.00 | 50 | 1014.8 |
| 20260506225033 | 44 | 208 | 7.0 | 15.0 | 0.00 | 0.00 | 0.00 | 50 | 1014.7 |
| 20260506224531 | 44 | 286 | 6.0 | 14.0 | 0.00 | 0.00 | 0.00 | 50 | 1014.7 |
| 20260506224029 | 44 | 306 | 5.0 | 12.0 | 0.00 | 0.00 | 0.00 | 50 | 1014.8 |
| 20260506223531 | 44 | 223 | 5.0 | 11.0 | 0.00 | 0.00 | 0.00 | 50 | 1014.8 |
| 20260506223030 | 44 | 274 | 6.0 | 13.0 | 0.00 | 0.00 | 0.00 | 50 | 1014.8 |
| 20260506222529 | 43 | 311 | 7.0 | 13.0 | 0.00 | 0.00 | 0.00 | 50 | 1014.8 |
| 20260506222029 | 44 | 279 | 7.0 | 14.0 | 0.00 | 0.00 | 0.00 | 50 | 1014.8 |
| 20260506221530 | 44 | 264 | 7.0 | 14.0 | 0.00 | 0.00 | 0.00 | 50 | 1014.8 |
| 20260506220530 | 44 | 274 | 6.0 | 15.0 | 0.00 | 0.00 | 0.00 | 50 | 1014.9 |
| 20260506220028 | 43 | 251 | 6.0 | 12.0 | 0.00 | 0.00 | 0.00 | 50 | 1014.9 |
| 20260506215531 | 43 | 235 | 6.0 | 13.0 | 0.00 | 0.00 | 0.00 | 50 | 1014.9 |
| 20260506215026 | 43 | 257 | 6.0 | 13.0 | 0.00 | 0.00 | 0.00 | 50 | 1015.0 |
| 20260506214520 | 43 | 309 | 7.0 | 15.0 | 0.00 | 0.00 | 0.00 | 51 | 1015.0 |
| 20260506214015 | 43 | 297 | 9.0 | 17.0 | 0.00 | 0.00 | 0.00 | 50 | 1015.1 |
| 20260506213509 | 43 | 229 | 9.0 | 17.0 | 0.00 | 0.00 | 0.00 | 50 | 1015.1 |
| 20260506212504 | 43 | 290 | 7.0 | 12.0 | 0.00 | 0.00 | 0.00 | 51 | 1015.1 |
| 20260506212003 | 43 | 246 | 7.0 | 13.0 | 0.00 | 0.00 | 0.00 | 50 | 1015.2 |
| 20260506211503 | 43 | 213 | 7.0 | 13.0 | 0.00 | 0.00 | 0.00 | 50 | 1015.3 |
| 20260506211003 | 43 | 268 | 7.0 | 13.0 | 0.00 | 0.00 | 0.00 | 50 | 1015.4 |
| 20260506210503 | 42 | 227 | 7.0 | 13.0 | 0.00 | 0.00 | 0.00 | 50 | 1015.3 |
| 20260506210003 | 42 | 304 | 7.0 | 13.0 | 0.00 | 0.00 | 0.00 | 50 | 1015.4 |
| 20260506205503 | 42 | 258 | 8.0 | 13.0 | 0.00 | 0.00 | 0.00 | 50 | 1015.3 |
| 20260506205003 | 42 | 246 | 9.0 | 17.0 | 0.00 | 0.00 | 0.00 | 50 | 1015.4 |
| 20260506204503 | 42 | 282 | 10.0 | 17.0 | 0.00 | 0.00 | 0.00 | 50 | 1015.4 |
| 20260506204001 | 42 | 300 | 10.0 | 17.0 | 0.00 | 0.00 | 0.00 | 50 | 1015.4 |
| 20260506203502 | 42 | 302 | 9.0 | 17.0 | 0.00 | 0.00 | 0.00 | 51 | 1015.5 |
| 20260506203002 | 42 | 275 | 9.0 | 16.0 | 0.00 | 0.00 | 0.00 | 51 | 1015.5 |
| 20260506202503 | 42 | 329 | 8.0 | 17.0 | 0.00 | 0.00 | 0.00 | 51 | 1015.6 |
| 20260506201503 | 42 | 273 | 7.0 | 16.0 | 0.00 | 0.00 | 0.00 | 51 | 1015.5 |
| 20260506200958 | 42 | 277 | 7.0 | 13.0 | 0.00 | 0.00 | 0.00 | 52 | 1015.5 |
| 20260506195951 | 42 | 280 | 5.0 | 13.0 | 0.00 | 0.00 | 0.00 | 51 | 1015.6 |
| 20260506195451 | 42 | 239 | 4.0 | 11.0 | 0.00 | 0.00 | 0.00 | 52 | 1015.7 |
| 20260506194449 | 41 | 290 | 7.0 | 12.0 | 0.00 | 0.00 | 0.00 | 52 | 1015.7 |
| 20260506193949 | 41 | 292 | 7.0 | 13.0 | 0.00 | 0.00 | 0.00 | 52 | 1015.7 |
| 20260506193446 | 42 | 265 | 6.0 | 13.0 | 0.00 | 0.00 | 0.00 | 53 | 1015.6 |
| 20260506192947 | 41 | 265 | 6.0 | 13.0 | 0.00 | 0.00 | 0.00 | 52 | 1015.7 |
| 20260506192448 | 41 | 255 | 7.0 | 13.0 | 0.00 | 0.00 | 0.00 | 53 | 1015.7 |
| 20260506191949 | 41 | 307 | 6.0 | 13.0 | 0.00 | 0.00 | 0.00 | 53 | 1015.9 |
| 20260506190948 | 41 | 227 | 6.0 | 14.0 | 0.00 | 0.00 | 0.00 | 54 | 1015.9 |
| 20260506190447 | 40 | 300 | 6.0 | 13.0 | 0.00 | 0.00 | 0.00 | 54 | 1015.9 |